Find Starlink 31342

NORAD ID: 59166 Int'l Des: 2024-044 Owner: SPXS Country: US Constellation: starlink operational
LEOCIRCULAR

Current View

Loading 3D Globe...

About Starlink 31342

Starlink 31342 (NORAD 59166) is a starlink constellation satellite (v2 mini) launched Mar 4, 2024 by SPXS of US. It operates in LEO, CIRCULAR orbit with a mass of 730.00 kg.

About Starlink 31342

Description loading...

Upcoming Passes

Passes for default location (London). Set your location on the main map for personalized predictions.

Altitude History

Loading altitude history...

Two-Line Element Set

1 59166U 24044Q 26166.03226991 .00000150 00000-0 14960-4 0 9994
2 59166 43.0026 277.2222 0001271 270.2619 89.8087 15.27583111128483
Epoch: Jun 15, 2026 • Age: 13 hours

Current Status

Altitude 483.8 km
Velocity 7.63 km/s
Sub-Earth Point 26.82°N, 51.36°W
Launch Date Mar 4, 2024
Age 2.2 years
Type internet

Technical Details

Classification Payload
Mass 730.00 kg
Dry Mass 700.00 kg
Total Mass 730.00 kg
Length 0.30 m
Diameter 4.10 m
Span 29.00 m
Shape Box + pan
Manufacturer SPXS
Bus Type Starlink V2M
Phase Status In Orbit
Owner/State SPXS/US

Most Searched